• In United Kingdom
  • List of Countries
  • For 7 days
  • Water Temperature
  • Satellite Maps
  • Weather Map
  • Weather Widgets
  • user-avatar
    Login

    Hourly Weather Mingachevir

    Today, 22 July, Saturday

    Time Temperature Precipitation Wind Pressure Humidity
    00:00 +29°C° 0 mm 3 mps 750 mmHg 29%
    01:00 +29°C° 0 mm 3 mps 750 mmHg 30%
    02:00 +28°C° 0 mm 2 mps 750 mmHg 30%
    03:00 +28°C° 0 mm 2 mps 750 mmHg 31%
    04:00 +29°C° 0 mm 2 mps 751 mmHg 32%
    05:00 +29°C° 0 mm 2 mps 751 mmHg 32%
    06:00 +29°C° 0 mm 2 mps 751 mmHg 33%
    07:00 +31°C° 0 mm 2 mps 751 mmHg 30%
    08:00 +34°C° 0 mm 3 mps 751 mmHg 27%
    09:00 +37°C° 0 mm 4 mps 751 mmHg 24%
    10:00 +38°C° 0 mm 4 mps 751 mmHg 23%
    11:00 +40°C° 0 mm 4 mps 750 mmHg 21%
    12:00 +41°C° 0 mm 5 mps 750 mmHg 19%
    13:00 +42°C° 0 mm 5 mps 750 mmHg 19%
    14:00 +42°C° 0 mm 5 mps 749 mmHg 18%
    15:00 +42°C° 0 mm 5 mps 749 mmHg 19%
    16:00 +42°C° 0 mm 5 mps 749 mmHg 20%
    17:00 +41°C° 0 mm 4 mps 749 mmHg 21%
    18:00 +41°C° 0 mm 4 mps 749 mmHg 21%
    19:00 +37°C° 0 mm 4 mps 749 mmHg 24%
    20:00 +35°C° 0 mm 3 mps 749 mmHg 26%
    21:00 +33°C° 0 mm 3 mps 749 mmHg 29%
    22:00 +31°C° 0 mm 2 mps 749 mmHg 31%
    23:00 +30°C° 0 mm 2 mps 749 mmHg 33%

    Tomorrow, 23 July, Sunday

    Time Temperature Precipitation Wind Pressure Humidity
    00:00 +29°C° 0 mm 1 mps 749 mmHg 36%
    01:00 +29°C° 0 mm 1 mps 749 mmHg 36%
    02:00 +29°C° 0 mm 1 mps 749 mmHg 36%
    03:00 +28°C° 0 mm 1 mps 749 mmHg 36%
    04:00 +29°C° 0 mm 2 mps 749 mmHg 35%
    05:00 +29°C° 0 mm 2 mps 749 mmHg 35%
    06:00 +29°C° 0 mm 2 mps 749 mmHg 35%
    07:00 +31°C° 0 mm 3 mps 749 mmHg 30%
    08:00 +34°C° 0 mm 3 mps 748 mmHg 26%
    09:00 +36°C° 0 mm 3 mps 748 mmHg 22%
    10:00 +37°C° 0 mm 3 mps 747 mmHg 20%
    11:00 +38°C° 0 mm 3 mps 747 mmHg 19%
    12:00 +40°C° 0 mm 3 mps 746 mmHg 18%
    13:00 +40°C° 0 mm 2 mps 746 mmHg 17%
    14:00 +41°C° 0 mm 2 mps 746 mmHg 16%
    15:00 +41°C° 0 mm 2 mps 745 mmHg 16%
    16:00 +41°C° 0 mm 2 mps 745 mmHg 17%
    17:00 +41°C° 0 mm 2 mps 745 mmHg 18%
    18:00 +40°C° 0 mm 2 mps 745 mmHg 18%
    19:00 +38°C° 0 mm 2 mps 746 mmHg 20%
    20:00 +36°C° 0 mm 2 mps 747 mmHg 22%
    21:00 +34°C° 0 mm 3 mps 748 mmHg 24%
    22:00 +32°C° 0 mm 2 mps 748 mmHg 27%
    23:00 +31°C° 0 mm 2 mps 748 mmHg 31%

    Day after tomorrow, 24 July, Monday

    Time Temperature Precipitation Wind Pressure Humidity
    00:00 +30°C° 0 mm 2 mps 748 mmHg 34%
    01:00 +30°C° 0 mm 2 mps 748 mmHg 36%
    02:00 +29°C° 0 mm 2 mps 748 mmHg 37%
    03:00 +29°C° 0 mm 2 mps 748 mmHg 38%
    04:00 +29°C° 0 mm 2 mps 748 mmHg 39%
    05:00 +29°C° 0 mm 2 mps 749 mmHg 39%
    06:00 +29°C° 0 mm 2 mps 749 mmHg 40%
    07:00 +31°C° 0 mm 2 mps 749 mmHg 37%
    08:00 +34°C° 0 mm 2 mps 748 mmHg 33%
    09:00 +35°C° 0 mm 2 mps 748 mmHg 30%
    10:00 +37°C° 0 mm 3 mps 748 mmHg 28%
    11:00 +38°C° 0 mm 3 mps 748 mmHg 25%
    12:00 +40°C° 0 mm 4 mps 747 mmHg 23%
    13:00 +41°C° 0 mm 5 mps 747 mmHg 23%
    14:00 +41°C° 0 mm 5 mps 746 mmHg 23%
    15:00 +42°C° 0 mm 6 mps 746 mmHg 22%
    16:00 +41°C° 0 mm 6 mps 746 mmHg 24%
    17:00 +40°C° 0 mm 6 mps 746 mmHg 25%
    18:00 +40°C° 0 mm 6 mps 746 mmHg 27%
    19:00 +38°C° 0 mm 6 mps 746 mmHg 31%
    20:00 +35°C° 0 mm 5 mps 747 mmHg 36%
    21:00 +32°C° 0 mm 5 mps 747 mmHg 40%
    22:00 +32°C° 0 mm 4 mps 747 mmHg 43%
    23:00 +30°C° 0 mm 3 mps 747 mmHg 46%

    25 July, Tuesday

    Time Temperature Precipitation Wind Pressure Humidity
    00:00 +29°C° 0 mm 3 mps 747 mmHg 49%
    01:00 +28°C° 0 mm 2 mps 747 mmHg 50%
    02:00 +28°C° 0 mm 2 mps 747 mmHg 50%
    03:00 +27°C° 0 mm 1 mps 747 mmHg 51%
    04:00 +28°C° 0 mm 1 mps 747 mmHg 49%
    05:00 +28°C° 0 mm 1 mps 747 mmHg 48%
    06:00 +28°C° 0 mm 1 mps 747 mmHg 46%
    07:00 +30°C° 0 mm 1 mps 747 mmHg 42%
    08:00 +32°C° 0 mm 2 mps 746 mmHg 37%
    09:00 +35°C° 0 mm 2 mps 746 mmHg 33%
    10:00 +36°C° 0 mm 2 mps 746 mmHg 30%
    11:00 +37°C° 0 mm 2 mps 745 mmHg 27%
    12:00 +39°C° 0 mm 2 mps 745 mmHg 24%
    13:00 +39°C° 0 mm 2 mps 744 mmHg 23%
    14:00 +40°C° 0 mm 2 mps 744 mmHg 22%
    15:00 +40°C° 0 mm 2 mps 743 mmHg 21%
    16:00 +40°C° 0.1 mm 2 mps 743 mmHg 21%
    17:00 +40°C° 0.1 mm 2 mps 743 mmHg 22%
    18:00 +40°C° 0.1 mm 2 mps 744 mmHg 22%
    19:00 +38°C° 0 mm 2 mps 744 mmHg 26%
    20:00 +35°C° 0 mm 3 mps 745 mmHg 29%
    21:00 +33°C° 0 mm 3 mps 745 mmHg 32%
    22:00 +31°C° 0 mm 3 mps 745 mmHg 36%
    23:00 +31°C° 0 mm 2 mps 746 mmHg 39%

    26 July, Wednesday

    Time Temperature Precipitation Wind Pressure Humidity
    00:00 +30°C° 0 mm 1 mps 746 mmHg 42%
    01:00 +29°C° 0 mm 1 mps 746 mmHg 43%
    02:00 +29°C° 0 mm 1 mps 746 mmHg 43%
    03:00 +28°C° 0 mm 1 mps 746 mmHg 44%
    04:00 +29°C° 0 mm 2 mps 746 mmHg 42%
    05:00 +29°C° 0 mm 2 mps 746 mmHg 41%
    06:00 +29°C° 0 mm 3 mps 746 mmHg 39%
    07:00 +31°C° 0 mm 3 mps 746 mmHg 34%
    08:00 +34°C° 0 mm 3 mps 746 mmHg 29%
    09:00 +36°C° 0 mm 3 mps 746 mmHg 24%
    10:00 +38°C° 0 mm 3 mps 745 mmHg 23%
    11:00 +39°C° 0 mm 3 mps 745 mmHg 22%
    12:00 +40°C° 0 mm 2 mps 744 mmHg 20%
    13:00 +40°C° 0 mm 2 mps 744 mmHg 20%
    14:00 +41°C° 0 mm 1 mps 744 mmHg 19%
    15:00 +42°C° 0 mm 1 mps 744 mmHg 19%
    16:00 +42°C° 0 mm 1 mps 744 mmHg 19%
    17:00 +41°C° 0 mm 1 mps 744 mmHg 20%
    18:00 +41°C° 0 mm 1 mps 744 mmHg 21%
    19:00 +39°C° 0 mm 1 mps 745 mmHg 24%
    20:00 +37°C° 0 mm 2 mps 746 mmHg 27%
    21:00 +34°C° 0 mm 3 mps 747 mmHg 30%
    22:00 +33°C° 0 mm 3 mps 747 mmHg 33%
    23:00 +31°C° 0 mm 2 mps 747 mmHg 35%

    27 July, Thursday

    Time Temperature Precipitation Wind Pressure Humidity
    00:00 +30°C° 0 mm 2 mps 747 mmHg 38%
    01:00 +30°C° 0 mm 2 mps 747 mmHg 38%
    02:00 +30°C° 0 mm 2 mps 747 mmHg 39%
    03:00 +29°C° 0 mm 2 mps 748 mmHg 39%
    04:00 +30°C° 0 mm 2 mps 748 mmHg 38%
    05:00 +30°C° 0 mm 2 mps 748 mmHg 37%
    06:00 +31°C° 0 mm 2 mps 748 mmHg 35%
    07:00 +34°C° 0 mm 3 mps 748 mmHg 31%
    08:00 +36°C° 0 mm 3 mps 748 mmHg 27%
    09:00 +38°C° 0 mm 3 mps 748 mmHg 22%
    10:00 +39°C° 0 mm 3 mps 748 mmHg 21%
    11:00 +40°C° 0 mm 2 mps 747 mmHg 19%
    12:00 +41°C° 0 mm 2 mps 747 mmHg 18%
    13:00 +42°C° 0 mm 2 mps 747 mmHg 17%
    14:00 +43°C° 0 mm 2 mps 747 mmHg 17%
    15:00 +43°C° 0 mm 1 mps 746 mmHg 16%
    16:00 +43°C° 0 mm 2 mps 746 mmHg 17%
    17:00 +43°C° 0 mm 2 mps 747 mmHg 18%
    18:00 +42°C° 0 mm 2 mps 747 mmHg 19%
    19:00 +40°C° 0 mm 3 mps 747 mmHg 22%
    20:00 +38°C° 0 mm 4 mps 748 mmHg 25%
    21:00 +36°C° 0 mm 4 mps 749 mmHg 29%
    22:00 +35°C° 0 mm 4 mps 749 mmHg 31%
    23:00 +34°C° 0 mm 3 mps 749 mmHg 34%
    Show more